Regional Weather Roundup
Issued by NWS

Home | Current Version | Previous Version | Graphics & Text | Print | Product List | Glossary On
Versions: 1 2 3 4 5 6 7 8 9 10 11 12 13 14 15 16 17 18 19 20 21 22 23 24 25 26 27 28 29 30 31 32 33 34 35 36 37 38 39 40 41 42 43 44 45 46 47 48 49 50
000
ASUS43 KLMK 222010
RWRKY
KENTUCKY REGIONAL WEATHER ROUNDUP
NATIONAL WEATHER SERVICE LOUISVILLE KY
400 PM EDT TUE JUL 22 2014

NOTE "FAIR" INDICATES FEW OR NO CLOUDS BELOW 12,000 FEET
WITH NO SIGNIFICANT WEATHER AND/OR OBSTRUCTIONS TO VISIBILITY.

KYZ001>023-026-027-061>063-070>075-222100-
WESTERN AND SOUTH CENTRAL KENTUCKY

CITY           SKY/WX    TMP DP  RH WIND       PRES   REMARKS
PADUCAH        SUNNY     93  69  45 VRB3      30.06F HX  98
HENDERSON      SUNNY     90  70  51 W6        30.04F HX  95
OWENSBORO      MOSUNNY   91  69  48 S7        30.04F HX  95
HOPKINSVILLE   MOSUNNY   92  68  45 S6        30.06F HX  96
BOWLING GREEN  MOSUNNY   92  66  42 VRB6      30.06F HX  94
GLASGOW        SUNNY     91  65  41 CALM      30.07F HX  93
$$

KYZ024-025-028>034-038-045-046-053-222100-
NORTH CENTRAL KENTUCKY

CITY           SKY/WX    TMP DP  RH WIND       PRES   REMARKS
LOUISVILLE/SDF MOSUNNY   94  68  42 SW10      30.04F HX  98
LOUISVILLE/LOU SUNNY     92  67  43 VRB3      30.05F HX  95
FORT KNOX      MOSUNNY   88  72  58 CALM      30.05F HX  95
$$

KYZ035>037-039>044-047>052-055>060-089>105-222100-
NORTHEAST KENTUCKY

CITY           SKY/WX    TMP DP  RH WIND       PRES   REMARKS
LEXINGTON      MOSUNNY   90  70  51 S10G17    30.08F HX  95
COVINGTON      MOSUNNY   90  66  45 SW10      30.07F HX  92
FRANKFORT      SUNNY     88  69  53 NW5       30.06F HX  92
$$

KYZ054-064>069-076>088-106>120-222100-
SOUTHEAST KENTUCKY

CITY           SKY/WX    TMP DP  RH WIND       PRES   REMARKS
JACKSON        SUNNY     87  67  51 CALM      30.11F HX  90
LONDON         MOSUNNY   87  68  52 CALM      30.11F HX  90
SOMERSET       PTSUNNY   88  68  51 W7        30.10F HX  91
MIDDLESBORO    MOSUNNY   88  69  53 S3        30.11F HX  92
MONTICELLO     PTCLDY    90  72  55 CALM      30.11F HX  97
$$



USA.gov is the U.S. government's official web portal to all federal, state and local government web resources and services.